Temp
-32 -32 -31 -31 -31 -31 -31 -31 -31 -30 -30 -30 -30 -30 -30 -28 -27 -25 -25 -25 -23 -23 -21 -20 -18 -18 -19 -18 -17 -16 -16 -15 -15 -14 -15 -16 -13 -12 -13 -13 -12 -12 -12 -12 -12 -12 -12 -12 -12 -12 -12 -13 -13 -14
-31 -31 -31 -31 -31 -31 -30 -31 -30 -30 -30 -30 -30 -30 -30 -27 -26 -25 -25 -25 -24 -23 -20 -19 -18 -18 -16 -17 -16 -16 -15 -15 -15 -15 -15 -14 -13 -13 -12 -12 -12 -13 -12 -12 -12 -12 -12 -12 -12 -12 -12 -13 -13 -14
-31 -31 -31 -31 -31 -30 -30 -30 -30 -30 -30 -30 -30 -30 -29 -27 -26 -25 -25 -24 -23 -22 -20 -19 -19 -19 -18 -17 -16 -16 -15 -15 -15 -15 -15 -13 -13 -13 -13 -12 -12 -12 -12 -12 -12 -12 -12 -12 -12 -13 -13 -13 -14 -14
-30 -31 -31 -30 -30 -30 -30 -30 -30 -30 -30 -30 -30 -29 -28 -27 -26 -25 -25 -25 -23 -21 -20 -20 -19 -18 -18 -17 -16 -16 -16 -16 -16 -14 -13 -14 -14 -14 -13 -13 -13 -12 -12 -12 -12 -12 -12 -12 -12 -13 -13 -13 -14 -14
-30 -31 -30 -30 -30 -30 -30 -30 -30 -30 -30 -30 -30 -28 -27 -26 -25 -25 -24 -24 -22 -22 -21 -20 -19 -19 -18 -17 -15 -16 -16 -16 -16 -15 -15 -14 -14 -14 -14 -13 -13 -12 -12 -12 -12 -12 -12 -12 -13 -13 -13 -14 -14 -14
-31 -30 -30 -31 -30 -30 -30 -30 -30 -30 -30 -30 -29 -27 -26 -25 -24 -23 -23 -23 -22 -21 -20 -20 -19 -18 -17 -17 -15 -16 -16 -16 -16 -15 -15 -15 -15 -14 -14 -13 -13 -12 -12 -12 -12 -12 -12 -13 -13 -13 -13 -14 -14 -15
-31 -31 -30 -30 -30 -30 -30 -30 -30 -30 -30 -29 -27 -26 -26 -25 -24 -23 -22 -22 -21 -21 -20 -19 -19 -18 -17 -17 -16 -15 -16 -16 -16 -16 -15 -15 -15 -14 -14 -13 -13 -13 -13 -13 -12 -12 -13 -13 -13 -13 -14 -14 -14 -15
-31 -31 -31 -31 -31 -30 -30 -30 -30 -30 -30 -28 -26 -26 -25 -25 -23 -22 -22 -22 -21 -20 -20 -19 -19 -17 -17 -16 -17 -16 -16 -16 -16 -15 -15 -15 -15 -14 -13 -13 -13 -13 -13 -13 -13 -13 -13 -13 -13 -13 -14 -14 -14 -15
-32 -31 -31 -31 -31 -30 -30 -30 -30 -29 -29 -27 -26 -25 -26 -25 -23 -22 -22 -21 -21 -21 -20 -19 -19 -17 -17 -15 -17 -16 -16 -16 -15 -15 -15 -15 -14 -13 -13 -13 -13 -13 -13 -13 -13 -13 -13 -13 -13 -13 -14 -14 -15 -15
-32 -32 -31 -31 -31 -30 -30 -30 -30 -29 -27 -26 -25 -25 -25 -24 -23 -22 -22 -22 -21 -20 -19 -19 -18 -17 -16 -16 -16 -16 -16 -16 -16 -15 -14 -15 -14 -14 -14 -13 -13 -13 -13 -13 -13 -13 -13 -13 -13 -14 -14 -14 -14 -15
-32 -32 -32 -32 -31 -31 -30 -30 -29 -28 -27 -25 -25 -25 -24 -24 -23 -22 -21 -20 -21 -20 -19 -19 -18 -18 -17 -17 -16 -16 -16 -16 -16 -15 -15 -14 -14 -14 -14 -13 -13 -13 -13 -13 -13 -13 -13 -13 -13 -14 -14 -15 -15 -15
-32 -32 -32 -32 -31 -31 -30 -29 -28 -28 -26 -26 -26 -26 -24 -23 -22 -21 -21 -21 -20 -20 -19 -19 -18 -18 -17 -17 -17 -17 -16 -15 -15 -15 -15 -14 -14 -14 -14 -13 -13 -13 -14 -14 -13 -13 -13 -14 -14 -14 -14 -14 -15 -15
-32 -32 -32 -32 -31 -30 -29 -28 -27 -27 -26 -26 -26 -26 -25 -22 -22 -22 -21 -20 -20 -19 -19 -19 -18 -18 -18 -18 -18 -17 -17 -16 -15 -15 -15 -14 -14 -14 -14 -14 -14 -14 -14 -14 -14 -14 -14 -14 -14 -14 -15 -15 -15 -15
-32 -32 -32 -31 -30 -29 -28 -27 -27 -27 -27 -27 -26 -25 -24 -22 -21 -20 -19 -19 -19 -19 -19 -19 -19 -18 -18 -18 -17 -17 -16 -16 -15 -15 -15 -14 -14 -14 -14 -14 -14 -14 -14 -14 -14 -14 -14 -14 -14 -14 -15 -15 -15 -16
-31 -31 -31 -31 -30 -28 -27 -27 -26 -27 -26 -26 -26 -25 -22 -21 -20 -20 -20 -20 -19 -19 -19 -19 -19 -18 -18 -17 -17 -17 -16 -16 -15 -15 -14 -14 -15 -14 -14 -14 -14 -14 -14 -14 -14 -14 -14 -14 -14 -15 -15 -15 -15 -16
-31 -30 -30 -30 -29 -27 -27 -26 -26 -26 -25 -25 -24 -22 -22 -21 -21 -20 -19 -19 -19 -19 -19 -19 -19 -18 -18 -17 -17 -16 -16 -16 -15 -15 -15 -15 -15 -15 -15 -15 -15 -15 -14 -14 -14 -14 -14 -14 -15 -15 -15 -15 -16 -16
-30 -29 -29 -29 -28 -27 -27 -26 -26 -25 -25 -25 -23 -22 -22 -21 -21 -19 -19 -19 -19 -19 -19 -19 -19 -18 -17 -17 -17 -17 -16 -16 -16 -15 -15 -15 -15 -15 -15 -15 -15 -14 -14 -15 -15 -14 -14 -15 -15 -15 -15 -15 -16 -16
-29 -28 -28 -27 -27 -27 -26 -26 -26 -25 -24 -24 -23 -22 -21 -20 -19 -18 -19 -19 -19 -19 -19 -18 -18 -17 -17 -17 -17 -16 -16 -16 -16 -16 -16 -15 -15 -15 -15 -15 -15 -15 -15 -15 -15 -15 -15 -15 -15 -15 -15 -15 -16 -16
-28 -28 -27 -27 -26 -26 -25 -25 -25 -25 -25 -25 -24 -22 -21 -21 -19 -20 -20 -20 -20 -19 -18 -19 -18 -17 -17 -17 -17 -17 -16 -16 -16 -16 -16 -16 -16 -15 -15 -15 -15 -15 -15 -15 -15 -15 -15 -15 -15 -15 -16 -16 -16 -16
-28 -28 -27 -27 -26 -26 -25 -25 -25 -25 -24 -23 -23 -22 -21 -21 -20 -20 -20 -20 -19 -19 -19 -18 -18 -17 -17 -17 -17 -17 -17 -17 -16 -16 -16 -16 -16 -15 -15 -15 -15 -16 -15 -15 -15 -15 -15 -15 -15 -16 -16 -16 -16 -17
-28 -27 -27 -26 -26 -26 -26 -25 -25 -24 -23 -22 -22 -21 -20 -20 -20 -20 -20 -19 -19 -19 -18 -18 -18 -18 -18 -18 -18 -17 -17 -17 -17 -17 -17 -16 -16 -16 -15 -15 -15 -16 -16 -15 -15 -16 -16 -16 -16 -16 -16 -17 -17 -17
-27 -27 -26 -26 -26 -25 -25 -25 -24 -24 -23 -22 -21 -21 -20 -19 -19 -20 -20 -19 -19 -19 -18 -18 -18 -18 -18 -18 -18 -18 -18 -17 -17 -17 -17 -16 -16 -16 -16 -16 -16 -16 -16 -16 -16 -16 -16 -16 -16 -16 -17 -17 -17 -18
-27 -26 -26 -26 -26 -26 -25 -25 -25 -25 -24 -22 -21 -20 -20 -20 -19 -18 -19 -18 -18 -18 -18 -19 -19 -18 -18 -18 -18 -18 -18 -18 -18 -17 -17 -16 -16 -16 -16 -16 -16 -16 -16 -16 -16 -16 -16 -16 -17 -17 -17 -18 -18 -18
-27 -27 -26 -26 -26 -25 -25 -25 -25 -25 -25 -22 -21 -21 -20 -20 -20 -19 -19 -18 -18 -19 -19 -19 -19 -18 -18 -18 -18 -18 -18 -18 -18 -17 -17 -17 -16 -16 -16 -16 -16 -16 -16 -16 -16 -17 -17 -17 -17 -17 -18 -18 -18 -18
-27 -26 -26 -26 -26 -25 -25 -25 -25 -25 -25 -23 -22 -21 -21 -21 -21 -20 -19 -18 -18 -19 -19 -18 -18 -18 -18 -18 -18 -18 -18 -18 -17 -17 -17 -17 -16 -17 -17 -16 -16 -16 -16 -17 -17 -17 -17 -17 -18 -18 -18 -18 -18 -18
-26 -26 -26 -25 -25 -25 -25 -25 -24 -24 -24 -24 -23 -22 -22 -21 -21 -20 -19 -20 -19 -18 -18 -18 -19 -18 -18 -18 -18 -18 -18 -18 -17 -17 -17 -17 -17 -17 -17 -17 -17 -17 -17 -17 -17 -17 -18 -18 -18 -18 -18 -18 -18 -18
-26 -26 -26 -25 -25 -24 -24 -24 -24 -24 -23 -22 -22 -22 -22 -22 -21 -20 -19 -19 -19 -19 -19 -19 -19 -19 -19 -18 -18 -18 -18 -18 -18 -18 -17 -17 -17 -17 -17 -17 -17 -17 -17 -17 -17 -17 -18 -18 -18 -18 -17 -17 -18 -18
-27 -26 -26 -26 -25 -25 -24 -24 -24 -24 -23 -22 -21 -21 -21 -21 -21 -21 -20 -20 -20 -20 -19 -19 -19 -19 -19 -19 -19 -19 -18 -18 -18 -18 -18 -18 -18 -18 -18 -18 -18 -18 -18 -18 -18 -18 -18 -18 -18 -18 -18 -18 -18 -18
-27 -27 -26 -26 -26 -25 -25 -24 -25 -24 -24 -22 -22 -22 -22 -21 -21 -21 -21 -20 -20 -20 -20 -20 -20 -19 -19 -19 -19 -19 -19 -19 -19 -19 -19 -18 -18 -18 -18 -18 -18 -18 -18 -18 -18 -18 -18 -18 -18 -18 -18 -18 -18 -18
-27 -27 -26 -26 -26 -25 -25 -25 -24 -24 -24 -23 -23 -22 -22 -22 -22 -21 -21 -21 -20 -20 -20 -20 -20 -20 -19 -19 -19 -19 -19 -19 -19 -19 -19 -19 -19 -18 -18 -18 -19 -19 -18 -18 -18 -18 -18 -18 -18 -18 -19 -19 -19 -19
-27 -27 -27 -27 -26 -26 -25 -25 -25 -25 -24 -24 -23 -23 -23 -22 -22 -21 -21 -21 -21 -21 -20 -20 -20 -20 -20 -19 -19 -19 -19 -19 -19 -20 -20 -19 -19 -19 -19 -19 -19 -19 -19 -19 -19 -19 -19 -19 -19 -19 -19 -19 -19 -19
-27 -27 -27 -27 -26 -26 -26 -26 -25 -25 -25 -24 -24 -24 -23 -23 -22 -22 -21 -21 -21 -21 -21 -21 -20 -20 -20 -20 -20 -20 -20 -20 -20 -20 -20 -20 -20 -20 -19 -19 -19 -19 -19 -19 -19 -19 -19 -19 -19 -19 -19 -19 -19 -19
-28 -27 -27 -27 -27 -26 -26 -26 -25 -25 -25 -25 -25 -24 -24 -23 -23 -22 -22 -21 -20 -21 -21 -21 -21 -21 -21 -21 -21 -20 -20 -20 -20 -20 -20 -20 -20 -20 -20 -20 -19 -19 -19 -20 -20 -20 -20 -20 -20 -20 -20 -20 -20 -20
Height
5348 5347 5348 5351 5355 5360 5367 5376 5384 5394 5403 5413 5422 5431 5439 5447 5456 5470 5483 5494 5505 5520 5533 5545 5561 5579 5600 5613 5628 5643 5656 5667 5677 5685 5698 5702 5707 5713 5719 5726 5732 5739 5743 5748 5751 5753 5756 5756 5757 5759 5759 5758 5760 5761
5354 5354 5356 5360 5364 5370 5376 5383 5391 5398 5407 5415 5424 5431 5438 5446 5458 5471 5485 5495 5505 5519 5536 5549 5570 5587 5597 5612 5626 5639 5654 5666 5675 5684 5692 5696 5702 5710 5716 5723 5729 5736 5741 5745 5749 5751 5753 5754 5755 5755 5756 5756 5757 5758
5363 5364 5365 5369 5373 5378 5384 5390 5396 5402 5409 5417 5423 5430 5436 5446 5460 5475 5489 5497 5506 5524 5537 5554 5571 5586 5602 5614 5626 5640 5649 5657 5670 5675 5682 5693 5702 5710 5717 5722 5729 5735 5739 5743 5746 5749 5750 5751 5752 5752 5753 5754 5755 5756
5370 5371 5373 5376 5379 5382 5388 5394 5399 5405 5412 5418 5424 5429 5437 5447 5461 5474 5485 5493 5508 5526 5538 5555 5567 5583 5599 5612 5625 5636 5649 5658 5667 5676 5685 5694 5702 5709 5714 5722 5726 5732 5737 5741 5744 5746 5748 5749 5749 5749 5750 5752 5753 5754
5374 5376 5377 5381 5384 5387 5392 5397 5402 5408 5413 5419 5424 5429 5437 5449 5465 5477 5487 5498 5512 5528 5538 5555 5569 5585 5598 5611 5622 5636 5647 5656 5666 5675 5684 5692 5700 5707 5712 5718 5724 5730 5735 5739 5742 5744 5745 5746 5746 5746 5748 5749 5751 5752
5373 5377 5380 5383 5386 5390 5395 5399 5404 5409 5414 5418 5423 5430 5441 5454 5468 5477 5491 5505 5521 5529 5543 5555 5570 5584 5597 5609 5622 5633 5645 5656 5665 5673 5682 5689 5697 5704 5709 5715 5722 5728 5731 5737 5739 5741 5742 5743 5743 5744 5746 5747 5748 5749
5373 5376 5380 5384 5387 5391 5395 5400 5404 5409 5413 5418 5423 5433 5445 5456 5466 5476 5491 5505 5518 5530 5545 5559 5571 5584 5595 5608 5619 5628 5643 5653 5662 5671 5678 5685 5693 5699 5707 5713 5719 5724 5729 5733 5735 5738 5739 5740 5740 5742 5743 5745 5746 5747
5371 5375 5379 5382 5386 5390 5395 5399 5404 5408 5412 5416 5427 5439 5451 5461 5470 5482 5498 5510 5520 5530 5544 5556 5569 5582 5593 5606 5619 5625 5641 5650 5660 5667 5675 5683 5691 5698 5704 5711 5717 5722 5726 5729 5732 5734 5736 5737 5737 5739 5741 5743 5744 5745
5369 5373 5377 5382 5386 5390 5394 5398 5402 5407 5412 5420 5431 5443 5452 5465 5474 5486 5500 5511 5520 5532 5542 5555 5569 5578 5593 5601 5616 5630 5640 5650 5657 5664 5674 5683 5688 5695 5703 5708 5713 5718 5722 5725 5728 5731 5732 5733 5734 5736 5738 5740 5742 5743
5369 5372 5375 5380 5384 5389 5393 5398 5402 5407 5415 5424 5436 5445 5456 5468 5479 5488 5502 5512 5523 5532 5544 5559 5569 5581 5594 5605 5615 5627 5637 5645 5654 5665 5673 5680 5686 5695 5699 5704 5709 5714 5719 5722 5725 5727 5728 5729 5731 5733 5735 5736 5738 5740
5367 5370 5374 5377 5381 5386 5392 5397 5402 5409 5419 5430 5440 5449 5460 5470 5481 5489 5501 5513 5522 5534 5546 5560 5570 5580 5590 5603 5609 5619 5632 5643 5652 5661 5669 5677 5684 5690 5695 5701 5705 5710 5714 5717 5721 5723 5725 5726 5728 5730 5732 5734 5736 5738
5365 5368 5371 5373 5377 5382 5389 5397 5404 5413 5424 5436 5445 5452 5460 5469 5474 5485 5496 5511 5524 5537 5551 5563 5575 5583 5593 5601 5609 5618 5628 5640 5648 5659 5666 5673 5681 5686 5692 5697 5702 5706 5711 5714 5717 5719 5721 5723 5725 5727 5729 5731 5733 5735
5361 5364 5367 5368 5371 5378 5386 5395 5405 5416 5425 5434 5443 5451 5455 5463 5471 5484 5498 5513 5524 5538 5550 5563 5576 5587 5596 5605 5612 5620 5629 5638 5649 5656 5663 5671 5679 5683 5688 5693 5698 5703 5707 5710 5713 5715 5717 5720 5722 5724 5726 5729 5731 5732
5357 5361 5361 5364 5368 5377 5386 5396 5407 5417 5426 5437 5448 5453 5454 5466 5480 5496 5509 5514 5527 5544 5555 5567 5578 5586 5596 5604 5611 5620 5629 5638 5645 5652 5661 5669 5675 5679 5685 5690 5694 5699 5703 5706 5708 5711 5714 5716 5718 5720 5723 5725 5727 5730
5356 5358 5361 5364 5370 5377 5390 5401 5411 5421 5432 5444 5450 5454 5463 5477 5485 5494 5507 5521 5532 5544 5554 5566 5578 5588 5596 5604 5613 5622 5629 5635 5641 5650 5658 5665 5669 5675 5681 5686 5690 5695 5699 5701 5704 5707 5710 5712 5714 5717 5720 5722 5725 5727
5355 5358 5362 5367 5372 5384 5397 5406 5415 5426 5434 5445 5450 5456 5465 5475 5485 5498 5509 5521 5532 5543 5555 5567 5576 5586 5595 5603 5611 5619 5626 5633 5642 5650 5657 5660 5666 5671 5677 5682 5687 5690 5694 5697 5700 5703 5706 5709 5711 5714 5717 5719 5721 5723
5355 5360 5365 5372 5382 5393 5401 5411 5420 5429 5439 5442 5450 5462 5472 5478 5487 5499 5511 5522 5535 5547 5556 5565 5574 5583 5592 5599 5608 5616 5625 5634 5644 5648 5652 5658 5663 5669 5674 5678 5682 5686 5690 5693 5696 5699 5702 5705 5708 5711 5714 5716 5718 5720
5358 5363 5370 5380 5389 5399 5410 5421 5429 5434 5440 5446 5454 5465 5476 5484 5488 5496 5510 5524 5536 5548 5557 5564 5575 5583 5590 5599 5608 5617 5627 5633 5639 5645 5650 5655 5660 5665 5670 5674 5678 5682 5686 5689 5692 5695 5699 5702 5704 5708 5711 5713 5715 5717
5364 5371 5379 5388 5397 5408 5417 5427 5434 5439 5446 5453 5460 5468 5477 5481 5489 5500 5511 5524 5535 5545 5555 5565 5574 5583 5591 5599 5609 5619 5625 5631 5636 5641 5647 5652 5657 5662 5666 5670 5674 5678 5682 5686 5689 5692 5695 5698 5701 5704 5707 5709 5712 5714
5370 5378 5386 5395 5402 5410 5419 5427 5433 5440 5448 5456 5462 5470 5479 5487 5496 5506 5516 5525 5534 5543 5554 5563 5573 5582 5592 5602 5610 5617 5623 5628 5634 5639 5644 5649 5654 5658 5662 5666 5670 5674 5678 5681 5685 5689 5692 5696 5699 5701 5704 5706 5708 5710
5378 5385 5394 5401 5410 5417 5424 5430 5435 5440 5448 5458 5464 5472 5481 5490 5500 5509 5518 5526 5535 5545 5555 5564 5574 5583 5593 5600 5606 5612 5618 5625 5631 5636 5641 5646 5650 5654 5657 5661 5665 5670 5675 5679 5683 5686 5690 5692 5695 5697 5700 5702 5704 5706
5384 5392 5400 5407 5414 5420 5429 5435 5440 5446 5453 5460 5467 5474 5484 5494 5503 5511 5518 5529 5539 5547 5556 5565 5574 5582 5589 5596 5602 5608 5615 5622 5627 5632 5637 5641 5646 5650 5654 5658 5663 5668 5672 5675 5679 5682 5685 5689 5691 5694 5696 5698 5700 5702
5390 5398 5404 5411 5419 5425 5432 5438 5443 5449 5455 5462 5468 5477 5486 5494 5503 5509 5516 5526 5537 5546 5554 5562 5571 5579 5587 5593 5599 5605 5612 5618 5623 5628 5633 5638 5642 5646 5649 5654 5659 5663 5668 5672 5676 5679 5682 5684 5687 5690 5692 5694 5696 5697
5395 5401 5407 5414 5422 5430 5436 5441 5446 5452 5456 5464 5470 5478 5485 5493 5499 5504 5514 5523 5535 5543 5552 5560 5568 5576 5583 5589 5596 5602 5608 5614 5620 5625 5629 5634 5639 5643 5646 5650 5654 5659 5663 5667 5671 5675 5678 5680 5683 5685 5687 5689 5690 5692
5398 5404 5411 5417 5424 5431 5436 5442 5447 5452 5458 5464 5469 5476 5485 5493 5500 5504 5512 5522 5532 5542 5550 5558 5566 5572 5579 5586 5593 5598 5605 5611 5616 5621 5625 5630 5634 5638 5643 5648 5652 5656 5660 5664 5667 5670 5672 5675 5677 5679 5681 5683 5685 5687
5399 5406 5413 5418 5424 5430 5435 5441 5447 5453 5461 5465 5469 5477 5485 5493 5499 5506 5512 5520 5529 5538 5547 5555 5563 5570 5576 5583 5589 5595 5601 5606 5612 5617 5621 5625 5629 5633 5638 5643 5647 5651 5655 5658 5661 5664 5666 5668 5670 5673 5675 5677 5680 5682
5402 5409 5416 5423 5430 5435 5441 5445 5450 5456 5464 5472 5474 5480 5487 5494 5502 5509 5514 5521 5529 5537 5545 5553 5560 5567 5573 5579 5585 5591 5597 5602 5607 5612 5616 5620 5625 5629 5633 5637 5641 5644 5647 5651 5654 5657 5660 5662 5664 5667 5669 5671 5673 5675
5404 5410 5417 5424 5430 5434 5440 5446 5452 5459 5467 5474 5478 5482 5487 5495 5501 5507 5514 5520 5528 5535 5542 5549 5556 5563 5569 5574 5580 5585 5591 5596 5601 5606 5610 5615 5619 5624 5628 5633 5637 5640 5644 5647 5649 5652 5654 5657 5659 5661 5663 5665 5667 5668
5404 5410 5417 5424 5430 5436 5440 5446 5452 5459 5466 5473 5477 5484 5490 5495 5502 5507 5514 5520 5526 5533 5539 5545 5551 5557 5563 5569 5574 5579 5585 5590 5596 5600 5605 5609 5614 5618 5622 5625 5629 5633 5636 5638 5641 5644 5647 5650 5652 5654 5657 5659 5660 5662
5404 5410 5417 5424 5430 5436 5440 5445 5452 5458 5464 5468 5475 5481 5486 5493 5501 5508 5513 5517 5523 5528 5534 5540 5546 5552 5558 5564 5569 5574 5579 5584 5588 5593 5598 5603 5607 5611 5615 5619 5622 5626 5629 5632 5635 5638 5641 5643 5645 5648 5650 5652 5653 5654
5404 5410 5417 5423 5429 5435 5440 5444 5450 5456 5462 5467 5473 5480 5487 5493 5499 5505 5509 5515 5519 5524 5529 5535 5540 5547 5553 5558 5563 5568 5573 5577 5582 5587 5591 5596 5600 5604 5607 5611 5615 5618 5622 5625 5628 5631 5634 5636 5638 5640 5642 5644 5646 5647
5404 5410 5416 5423 5429 5435 5440 5444 5449 5454 5459 5466 5472 5479 5485 5490 5495 5500 5506 5510 5515 5520 5525 5530 5535 5540 5546 5551 5556 5561 5565 5569 5574 5579 5584 5588 5593 5597 5601 5604 5608 5611 5614 5617 5620 5623 5626 5628 5630 5632 5633 5635 5637 5639
5403 5409 5415 5421 5426 5430 5437 5443 5449 5453 5458 5462 5467 5473 5478 5484 5489 5494 5499 5504 5509 5515 5519 5524 5528 5534 5539 5544 5549 5554 5558 5562 5567 5571 5575 5580 5584 5588 5592 5596 5599 5602 5606 5609 5612 5614 5616 5618 5621 5623 5625 5626 5628 5629
Wind_Speed
4 9 17 26 27 29 31 33 35 37 39 39 38 38 37 43 53 66 63 33 41 67 63 81 81 75 67 62 57 53 50 49 48 50 36 37 43 42 41 37 33 27 23 18 15 14 11 11 11 10 10 9 9 8
13 18 23 26 27 29 29 29 28 32 33 35 35 34 38 48 71 66 58 35 33 70 72 80 74 71 71 64 59 57 54 51 52 46 39 46 48 44 41 36 33 30 25 19 17 12 9 8 9 10 9 11 9 8
14 17 20 24 25 26 29 27 25 30 32 33 32 33 38 55 71 57 57 39 45 71 75 75 70 71 65 63 60 57 57 57 57 52 48 45 43 41 35 34 30 25 22 20 18 12 9 7 8 9 9 12 9 7
10 13 18 22 23 19 25 27 27 28 29 27 30 30 46 63 70 48 49 44 57 71 72 70 70 72 64 62 61 60 55 55 56 49 43 42 38 37 36 32 32 28 24 22 15 13 11 9 9 9 10 11 10 7
19 17 19 18 22 21 24 26 27 26 25 26 24 39 46 67 63 49 47 51 63 57 66 68 71 71 64 64 62 60 53 52 51 48 44 40 35 36 37 35 31 28 23 20 15 13 10 9 9 9 11 11 9 7
15 23 19 20 19 21 22 25 26 22 25 20 28 43 61 64 64 57 56 51 50 55 65 66 72 71 65 64 58 60 54 49 48 47 42 39 36 34 34 35 31 28 27 20 17 13 11 10 10 10 11 11 9 7
18 18 25 22 21 21 24 23 21 19 22 19 35 55 66 64 64 61 59 60 44 52 62 64 72 71 65 62 57 60 53 50 50 48 46 42 37 34 33 33 31 29 26 23 18 13 12 10 10 11 12 11 9 8
20 21 21 23 24 24 23 22 19 19 18 24 53 55 61 62 60 59 52 46 40 56 63 65 73 71 66 62 62 51 55 53 50 51 49 43 38 34 32 31 30 27 25 22 18 15 13 13 12 11 12 12 11 10
17 23 24 25 25 25 25 22 19 22 21 39 54 53 54 67 70 60 44 49 49 58 63 68 74 71 67 60 66 56 55 53 54 52 48 42 39 35 29 28 28 26 24 22 19 15 14 13 14 14 14 13 11 10
15 18 24 27 28 27 26 21 23 23 33 51 56 42 55 61 67 58 45 45 43 58 62 68 75 69 68 66 60 59 57 57 56 51 46 42 39 32 30 29 27 25 22 20 18 16 15 13 14 14 15 15 14 12
18 18 19 22 27 31 29 25 26 35 42 49 50 54 62 62 66 59 56 52 51 59 62 66 73 69 62 65 48 49 62 55 50 48 44 40 37 33 30 28 26 26 24 23 19 17 16 15 16 14 13 14 14 11
19 19 20 17 27 31 32 31 41 48 52 53 47 48 57 70 73 57 55 51 55 60 59 63 68 67 64 67 51 57 60 55 52 46 41 40 37 33 30 28 27 26 24 22 19 18 16 16 14 13 14 16 15 12
19 22 18 17 23 35 38 43 55 55 58 59 43 30 53 76 64 51 62 54 55 59 59 61 61 65 60 53 47 42 43 46 42 41 39 37 34 32 30 29 27 26 24 21 20 17 18 17 16 17 15 15 15 14
19 16 17 17 29 41 46 61 58 60 59 46 39 28 50 62 59 65 52 56 58 58 57 57 57 60 60 58 54 51 47 43 41 40 36 31 30 31 30 29 28 26 23 21 19 19 19 19 18 17 18 17 16 15
14 15 19 19 32 44 62 56 54 53 46 37 34 51 62 58 58 44 48 54 61 57 58 56 56 56 56 56 54 51 46 43 41 36 33 30 32 31 29 29 28 26 23 22 22 20 19 20 19 18 18 16 14 13
9 17 20 20 40 67 59 52 49 49 42 36 49 73 68 53 45 44 56 57 60 57 57 54 57 58 55 53 49 46 45 41 36 33 31 33 32 31 31 30 28 26 23 23 23 22 20 19 19 19 18 18 17 17
20 25 30 36 58 58 55 50 45 48 50 30 44 57 56 44 35 51 58 60 60 53 56 57 56 57 55 56 55 52 47 36 29 29 32 32 31 31 30 29 27 25 23 23 22 21 20 19 19 19 19 18 17 16
29 39 39 54 51 50 50 57 43 49 47 38 40 55 53 39 45 64 62 62 60 54 55 57 55 55 53 49 45 40 35 32 31 31 33 33 32 30 29 28 26 24 24 24 22 21 21 21 21 20 19 18 18 17
36 45 49 54 54 53 49 43 41 38 51 42 39 57 46 30 50 55 60 62 60 57 54 53 53 51 50 46 41 34 31 30 31 31 32 31 30 30 28 26 26 26 26 23 23 22 23 24 23 22 21 20 19 17
37 42 51 50 55 61 43 32 29 27 45 51 56 52 42 36 46 48 51 59 59 57 52 52 51 50 46 38 34 33 30 30 33 33 31 30 29 27 26 25 27 28 27 26 23 22 23 20 19 20 19 19 18 18
38 45 53 48 51 45 42 34 31 33 51 58 63 47 39 43 39 39 44 49 51 50 51 50 47 41 37 33 34 35 36 34 34 33 31 31 28 25 26 27 29 30 27 24 23 23 22 22 22 22 20 19 17 16
42 49 43 45 55 44 46 37 29 31 45 49 61 42 44 48 47 44 46 49 44 44 45 45 40 38 38 34 33 35 34 32 29 31 32 30 27 25 25 27 28 28 27 26 26 25 24 22 22 21 20 19 19 19
41 52 46 42 47 42 37 33 29 27 29 54 62 46 45 46 56 58 62 47 47 48 47 45 41 38 38 37 35 35 39 33 32 33 32 29 28 30 30 30 30 29 27 26 25 23 23 23 23 22 20 19 19 19
40 41 43 43 41 39 37 33 28 29 26 53 60 49 43 40 43 49 64 50 48 49 47 45 41 39 39 38 37 35 34 35 34 32 33 30 29 31 33 33 32 31 29 28 26 24 23 22 21 21 21 22 23 21
42 42 43 39 40 29 28 27 26 26 31 51 59 54 36 30 24 40 54 56 56 53 49 44 41 40 41 41 41 38 37 35 35 32 29 28 31 31 29 30 29 29 28 26 23 23 23 24 23 23 23 24 23 21
42 38 38 34 32 31 29 24 27 25 21 30 48 46 47 35 20 43 54 55 58 54 49 44 44 42 40 41 40 39 37 36 36 30 30 29 32 33 31 29 29 28 27 26 26 26 26 25 25 25 25 25 24 22
43 40 38 38 41 44 41 40 35 35 37 30 27 23 33 38 27 38 50 49 52 49 44 41 42 43 40 38 38 37 37 35 33 33 33 32 32 33 34 34 34 34 33 31 30 28 27 27 27 26 25 25 25 24
43 41 39 39 40 40 44 42 37 41 39 39 28 32 29 29 27 31 44 50 48 44 43 41 41 42 42 42 40 38 37 38 37 35 34 33 32 32 32 31 30 30 28 27 26 26 26 26 25 25 25 26 27 26
44 42 40 38 37 39 40 41 41 43 46 47 37 33 34 33 36 36 38 37 42 42 40 39 42 40 40 39 39 37 37 37 37 37 35 33 33 33 33 33 33 31 30 28 27 26 26 26 25 25 26 26 27 27
46 45 41 40 37 34 39 44 45 42 39 42 42 38 33 34 32 34 33 32 38 37 37 42 40 40 40 40 38 35 35 38 40 38 36 35 34 34 33 33 32 31 30 29 28 28 27 26 26 26 26 26 27 28
46 46 45 42 39 37 37 39 41 43 44 44 39 37 37 36 37 39 35 31 35 40 35 35 38 42 39 38 37 35 33 34 36 37 35 34 34 33 33 32 30 29 28 27 27 27 27 27 27 27 27 27 27 27
46 45 47 44 41 39 36 35 36 40 45 49 47 43 39 37 42 45 46 45 42 41 43 37 33 37 40 40 38 38 37 36 39 41 39 36 33 32 30 30 29 29 29 29 29 29 29 28 28 28 28 29 29 29
46 46 47 48 47 44 41 39 36 33 31 33 39 44 42 40 38 41 47 54 53 45 36 42 43 40 37 38 42 42 40 39 38 39 39 37 34 31 31 31 31 31 30 30 30 29 29 28 29 29 29 30 30 31
Wind_Direction
65 124 136 138 136 140 149 156 167 171 177 180 183 189 191 187 183 172 177 178 183 186 181 179 177 175 176 179 178 178 177 179 178 180 177 182 184 184 186 189 189 189 191 197 209 227 232 241 251 256 274 254 226 240
108 119 126 131 135 142 145 152 159 170 172 180 185 189 189 181 172 173 179 182 188 185 180 177 174 178 179 177 176 173 175 180 178 168 192 190 189 190 191 187 185 191 191 196 204 212 230 240 254 252 265 227 223 246
91 111 126 133 138 143 151 157 167 169 176 183 188 188 194 179 172 169 175 175 188 182 180 177 175 176 177 177 173 175 178 178 179 180 192 191 193 195 191 190 191 189 189 193 207 221 228 246 259 252 248 217 225 240
109 123 129 144 143 148 159 169 173 176 179 187 187 198 185 177 173 172 179 180 179 180 184 177 176 176 174 176 176 177 179 180 185 191 189 191 193 192 191 193 196 192 197 202 210 221 240 250 259 253 224 213 222 230
150 149 162 154 156 163 168 178 178 178 182 184 196 189 183 174 171 169 171 184 178 177 184 177 176 174 174 176 178 178 180 181 185 187 190 191 193 196 199 197 193 197 195 204 213 226 237 257 258 239 211 214 217 223
173 168 167 171 175 174 173 179 173 176 181 193 195 186 174 165 168 167 157 171 169 188 182 177 175 173 173 177 177 179 181 181 184 188 190 195 198 201 202 202 198 200 204 209 220 232 244 259 259 232 214 215 218 221
201 185 179 184 183 181 179 179 182 184 190 193 185 173 171 165 172 169 156 165 165 188 181 176 176 175 173 177 180 173 179 181 183 190 195 198 197 198 200 200 200 202 204 212 224 236 248 259 244 224 215 218 220 222
198 196 188 180 186 187 187 186 191 190 198 182 173 169 176 168 167 159 160 165 168 179 179 178 176 181 172 175 184 171 183 186 187 194 196 197 197 198 200 198 200 202 206 214 225 239 249 256 237 223 219 222 218 220
189 195 196 195 192 191 192 194 193 193 185 170 164 161 169 173 173 163 155 161 166 175 179 177 177 185 171 171 182 183 189 190 197 198 199 199 200 202 200 201 201 204 207 215 228 243 251 252 231 222 217 219 221 222
189 186 195 201 200 199 198 200 191 189 168 167 161 173 167 175 173 170 158 158 177 176 179 179 178 185 177 169 185 182 188 194 202 202 201 201 202 201 206 205 207 209 214 221 234 244 249 239 223 220 215 220 222 219
197 196 197 201 204 206 202 197 191 168 167 169 167 169 161 163 173 171 165 170 181 178 178 180 182 184 185 178 173 168 187 193 198 202 204 201 202 206 208 209 210 213 218 229 239 246 254 245 219 215 218 220 217 218
204 196 198 221 210 206 204 187 169 162 164 168 177 184 176 168 180 167 163 168 180 176 178 182 184 186 190 194 186 180 189 199 203 203 205 203 203 208 210 211 214 217 222 231 236 240 230 218 218 226 228 221 215 213
207 213 226 227 204 196 183 169 159 161 170 176 167 190 193 180 181 174 165 177 178 176 179 183 184 189 190 197 199 198 195 196 201 204 206 204 203 208 211 213 214 217 224 229 237 237 230 221 222 213 210 212 216 215
211 226 220 197 180 175 167 157 154 166 175 173 175 190 199 175 167 153 160 166 177 179 180 181 184 188 191 196 201 202 205 203 208 210 208 202 206 210 211 210 211 216 223 230 234 228 226 223 221 216 215 215 211 209
210 175 183 188 176 170 162 153 152 166 165 166 190 198 180 159 151 148 157 171 173 177 178 181 185 189 189 193 201 204 207 207 208 206 204 203 208 209 209 209 213 220 226 232 228 226 220 221 214 212 212 213 216 221
138 167 168 169 167 158 149 150 163 163 162 174 192 190 180 167 152 159 165 174 176 179 177 184 186 187 189 193 195 198 199 201 204 205 201 205 205 205 206 209 214 221 227 226 225 218 218 214 210 209 212 212 214 213
155 157 158 163 148 154 160 156 152 165 171 171 187 184 179 164 159 162 172 173 176 180 184 184 188 191 194 198 196 200 202 205 202 200 202 200 199 202 206 211 219 225 222 218 212 216 215 212 211 212 212 216 216 217
157 148 161 147 148 154 166 172 174 178 175 173 183 181 168 162 152 149 168 176 176 179 185 190 190 192 195 198 199 197 196 197 198 202 197 197 200 204 209 216 220 215 210 209 212 211 210 209 210 211 215 214 216 220
154 150 153 157 146 157 163 165 181 192 190 191 187 183 173 155 149 161 172 174 179 183 184 188 193 195 197 199 196 194 190 192 191 194 197 200 204 209 215 218 216 209 206 209 210 208 210 209 210 208 210 213 219 221
164 159 155 161 165 168 155 155 150 177 186 188 189 188 177 157 165 164 170 178 183 187 188 187 190 195 194 193 191 193 197 202 200 199 203 206 210 214 216 215 213 207 207 210 212 211 212 212 211 217 221 223 222 222
164 158 156 162 165 170 176 167 161 169 183 188 192 169 150 156 174 176 180 185 183 185 187 191 193 195 194 192 196 199 204 203 201 202 204 208 210 214 214 212 205 203 208 209 206 206 211 215 216 215 216 219 223 232
162 166 160 166 174 166 172 169 158 166 189 192 189 173 157 161 166 180 187 186 185 185 189 192 191 192 195 195 195 192 194 199 208 211 210 209 209 207 204 201 201 205 205 205 206 210 213 214 220 224 228 228 229 235
162 169 166 168 178 185 188 194 196 197 199 192 191 164 153 162 176 182 180 193 193 194 193 193 195 196 196 195 194 200 200 206 212 208 206 206 209 204 196 197 200 203 207 211 216 218 222 226 229 228 227 229 235 234
161 174 173 170 174 178 184 185 192 201 201 198 190 182 153 148 175 174 173 185 188 187 189 192 193 193 193 193 194 199 201 203 202 204 207 207 207 208 203 200 202 206 209 211 214 218 225 230 231 232 230 232 233 232
162 169 173 177 179 180 187 187 193 195 207 205 206 196 196 186 181 176 181 184 187 193 196 197 197 196 194 196 198 202 204 206 207 209 207 210 209 206 209 212 213 214 217 218 224 232 233 231 229 228 229 232 234 233
164 169 172 177 179 169 164 164 179 182 182 213 213 214 214 204 174 177 183 179 184 189 194 196 195 194 196 199 202 205 208 211 212 217 215 212 209 206 205 209 213 217 221 225 227 226 227 227 229 230 233 236 235 234
169 169 168 172 173 170 161 169 178 174 169 182 209 213 225 215 209 185 188 190 194 192 193 196 197 197 200 203 204 206 210 214 218 216 212 212 212 212 212 213 215 217 219 221 225 228 230 231 232 235 236 235 235 236
179 177 176 177 180 179 177 182 178 174 173 174 171 175 180 195 195 187 189 196 192 191 194 195 198 201 205 208 211 214 217 214 212 209 208 209 209 211 213 214 218 223 229 233 235 237 237 238 239 239 237 237 238 239
181 182 183 184 182 184 185 177 179 180 180 182 171 170 170 170 178 185 186 186 188 191 197 199 199 199 201 204 205 206 210 210 212 213 212 212 213 214 216 219 222 224 225 225 228 231 233 235 237 238 238 240 243 244
184 185 188 188 188 187 193 189 175 180 189 189 191 189 185 178 178 181 187 189 193 183 189 195 195 200 205 207 207 208 213 216 214 212 213 216 218 219 220 221 224 226 230 231 233 236 238 239 240 242 244 245 245 247
189 191 193 192 192 194 195 199 200 195 189 189 189 191 194 191 182 186 172 186 194 203 199 197 197 202 206 209 210 211 215 217 218 215 213 215 215 216 218 220 221 223 226 229 232 235 237 240 242 245 248 249 251 252
196 196 197 197 197 195 194 193 197 201 200 196 194 194 195 194 193 189 193 186 188 198 202 203 206 205 206 209 212 214 216 219 220 218 215 214 215 219 222 224 226 228 231 232 235 237 239 241 244 245 248 251 254 256
203 203 202 204 202 199 198 197 192 191 192 196 203 204 202 203 204 202 199 199 198 198 203 209 205 205 208 210 213 215 217 218 219 220 219 219 217 219 222 225 227 228 230 233 236 238 241 244 247 249 251 254 257 260